Simultaneous Nadir Overpasses (SNOs) Predictions

Prediction of SNOs between NPP and TERRA Satellite Orbit:

Table of predicted SNOs for the next 14.0 days since TLE Epoch: 1/16/2016
Index Date (NPP) Time (NPP) Lat,Lon (NPP) SZA (NPP ) Date (TERRA) Time (TERRA) Lat,Lon (TERRA) SZA (TERRA ) Distance(km) Time Diff (sec)
1 01/16/2016 17:33:39 68.64, -84.63 89.51 01/16/2016 17:34:50 68.66, -84.57 89.52 2.74 71
2 01/16/2016 18:24:20 -68.52, 82.85 90.63 01/16/2016 18:24:21 -68.50, 82.86 90.66 3.14 1
3 01/16/2016 19:15:02 68.28,-109.52 89.12 01/16/2016 19:13:49 68.33,-109.70 89.18 9.16 73
4 01/19/2016 09:50:31 68.61, 31.19 88.95 01/19/2016 09:51:20 68.62, 31.25 88.95 2.57 49
5 01/19/2016 10:41:11 -68.43,-161.26 91.25 01/19/2016 10:40:51 -68.46,-161.31 91.22 3.37 20
6 01/19/2016 11:31:40 67.48, 7.23 87.78 01/19/2016 11:30:32 67.56, 5.28 87.90 83.13 68
7 01/22/2016 02:07:23 68.58, 147.01 88.34 01/22/2016 02:07:50 68.56, 147.07 88.32 2.76 27
8 01/22/2016 02:58:03 -68.40, -45.44 91.86 01/22/2016 02:57:21 -68.41, -45.49 91.85 2.28 42
9 01/24/2016 17:33:37 -69.00, 94.90 91.83 01/24/2016 17:34:48 -68.90, 95.71 91.97 34.47 71
10 01/24/2016 18:24:14 68.50, -97.11 87.64 01/24/2016 18:24:20 68.50, -97.13 87.64 0.96 6
11 01/24/2016 19:14:55 -68.37, 70.37 92.50 01/24/2016 19:13:50 -68.40, 70.38 92.47 3.04 65
12 01/27/2016 09:50:21 -68.61,-148.79 92.90 01/27/2016 09:51:21 -68.60,-148.78 92.92 0.79 60
13 01/27/2016 10:41:05 68.48, 18.69
